{"data":{"norad_id":66865,"epoch":"2026-09-20T04:15:18.160128Z","epoch_age_seconds":112316,"freshness":"FRESH","line1":"1 66865U 25281T   26263.17729352  .00011533  00000+0  42790-3 0  9991","line2":"2 66865  43.0005 324.7838 0001484 274.0797  85.9885 15.27585901 45930","mean_motion":15.27585901,"eccentricity":0.0001484,"inclination_deg":43.0005,"raan_deg":324.7838,"arg_perigee_deg":274.0797,"mean_anomaly_deg":85.9885,"bstar":0.0004279,"rev_number":4593,"period_min":94.266384565172,"perigee_km":482.01322898519,"apogee_km":484.04962377414,"semimajor_km":6861.1684263797,"source":"CELESTRAK","updated_at":"2026-09-21T09:00:36.029260Z"}}